Location: *
(46.1006°N, 1.8394°E)
Time: 07:06:50
(UTC+00:00)

Cosmos 2219 Rocket - Pass Details

Date: 20 September 2019
Orbit: 829 x 845 km, 71.0° (Epoch: 17 October)

Event Time Altitude Azimuth Distance (km) Brightness Sun altitude
Rises 19:45:41 0° 322° (NW) 3,381 6.4 -19.5°
Reaches altitude 10° 19:48:33 10° 309° (NW) 2,444 5.7 -19.9°
Maximum altitude 19:52:52 24° 258° (WSW) 1,682 4.3 -20.6°
Drops below altitude 10° 19:57:11 10° 207° (SSW) 2,437 4.6 -21.3°
Sets 20:00:04 0° 194° (SSW) 3,368 5.2 -21.7°
